Regional Weather Roundup
Issued by NWS

Home | Current Version | Previous Version | Text Only | Print | Product List | Glossary Off
Versions: 1 2 3 4 5 6 7 8 9 10 11 12 13 14 15 16 17 18 19 20 21 22 23 24 25 26 27 28 29 30 31 32 33 34 35 36 37 38 39 40 41 42 43 44 45 46 47 48 49 50

000
ASUS43 KMPX 041201
RWRMN
WEATHER ROUNDUP FOR MINNESOTA
NATIONAL WEATHER SERVICE TWIN CITIES/CHANHASSEN MN
600 AM CST SUN DEC 04 2016


NOTE: "FAIR" INDICATES FEW OR NO CLOUDS BELOW 12,000 FEET WITH NO
SIGNIFICANT WEATHER AND/OR OBSTRUCTIONS TO VISIBILITY. N/A MEANS
CURRENT SKY AND/OR WEATHER CONDITIONS ARE NOT AVAILABLE.

MNZ060>063-068>070-041300-
   Twin Cities Metro

CITY           SKY/WX    TMP DP  RH WIND       PRES   REMARKS
TWIN CITIES    LGT SNOW  32  30  92 SE14      29.96F FOG     WCI  22
6HR MIN TEMP:  31; 6HR MAX TEMP:  32; 6HR PCP:  0.10;

ST PAUL        LGT SNOW  32  32 100 SE10      29.99F FOG     WCI  24
CRYSTAL        LGT SNOW  32  29  88 SE8       29.95F VSB 1   WCI  25
BLAINE         LGT SNOW  34  34 100 SE7       29.95F WCI  28
LAKEVILLE      LGT SNOW  30  30 100 SE7       29.96F WCI  23
EDEN PRAIRIE   LGT SNOW  33  31  92 SE10      29.94F VSB 3/4 WCI  25
6HR MIN TEMP:  32; 6HR MAX TEMP:  33; 6HR PCP:  0.04;

SOUTH ST PAUL  LGT SNOW  32  32  99 SE7       29.97F WCI  26
LAKE ELMO      LGT SNOW  32  32 100 SE7       29.98F WCI  26
$$
MNZ001>005-007-008-013>017-022>024-027-028-041300-
   Northwest Minnesota

CITY           SKY/WX    TMP DP  RH WIND       PRES   REMARKS
BEMIDJI        CLOUDY    29  28  96 SE10      29.82F WCI  20
HALLOCK        LGT SNOW  34  32  93 SE13      29.72F WCI  25
ROSEAU         MOCLDY    32  28  86 SE12      29.79F WCI  23
WARROAD        CLOUDY    30  27  86 SE12      29.81F WCI  21
THIEF RVR FALL CLOUDY    33  30  88 SE16      29.76F WCI  23
CROOKSTON      LGT SNOW  34  34 100 S14       29.76F WCI  24
FOSSTON        CLOUDY    30  28  93 SE12G17   29.78F WCI  21
DETROIT LAKES  CLOUDY    34  32  93 S14       29.79F FOG     WCI  24
MOORHEAD       LGT SNOW  34  30  86 S16       29.78F WCI  23
PARK RAPIDS    CLOUDY    31  28  89 SE15      29.82F FOG     WCI  20
$$
MNZ006-009>011-018-025>026-041300-
   North Central Minnesota

CITY           SKY/WX    TMP DP  RH WIND       PRES   REMARKS
BAUDETTE       LGT SNOW  27  25  92 SE12      29.84F FOG     WCI  17
FLAG ISLAND    CLOUDY    28  27  93 SE18G24   29.82F WCI  16
INTL FALLS     LGT SNOW  27  24  89 SE8       29.90F FOG     WCI  19
6HR MIN TEMP:  22; 6HR MAX TEMP:  27; 6HR PCP:  0.04;

WASKISH        CLOUDY    28  27  93 SE8       29.85F WCI  20
BIG FORK       LGT SNOW  28  25  86 SE7       29.89F WCI  21
LONGVILLE      MIX PCPN  28  27  93 SE6       29.86F WCI  22
GRAND RAPIDS   LGT SNOW  26  25  96 SE10      29.91F FOG     WCI  16
CRANE LAKE     LGT SNOW  25  25 100 CALM      29.97F
ORR            LGT SNOW  27  21  80 SE7       29.90F WCI  19
COOK           LGT SNOW  27  25  93 SE5       29.93F WCI  21
$$
MNZ012-019>021-037-041300-
   Northeast Minnesota

CITY           SKY/WX    TMP DP  RH WIND       PRES   REMARKS
DULUTH         LGT SNOW  27  26  96 SE10      29.96F FOG     WCI  17
6HR MIN TEMP:  26; 6HR MAX TEMP:  28; 6HR PCP:  0.04;

ELY            LGT SNOW  27  25  93 SE6       29.97F WCI  20
HIBBING        LGT SNOW  25  23  92 SE9       29.93F FOG     WCI  15
EVELETH        LGT SNOW  28  26  93 SE6       29.95F WCI  21
DULUTH HARBOR  LGT SNOW  30  27  86 SE3       30.02F
TWO HARBORS    LGT SNOW  32  27  80 SE5       29.99F WCI  27
SILVER BAY     MIX PCPN  28  27  93 CALM      29.99F
GRAND MARAIS     N/A     35  26  69 S12       30.05F WCI  27
G MARAIS ARPRT CLOUDY    27  19  74 S7        30.00S WCI  19
$$
MNZ029>031-032-039>041-046>048-054>057-064-041300-
   West Central Minnesota

CITY           SKY/WX    TMP DP  RH WIND       PRES   REMARKS
FERGUS FALLS   CLOUDY    34  34 100 S14       29.84F WCI  24
WHEATON        LGT SNOW N/A N/A N/A S12       29.82F
MORRIS         CLOUDY    34  32  93 S14       29.82F FOG     WCI  24
ALEXANDRIA     CLOUDY    33  33 100 S12       29.84F WCI  24
ELBOW LAKE     CLOUDY    32  32 100 S15       29.82F WCI  22
WADENA         LGT RAIN  30  30 100 S10G17    29.83F WCI  21
GLENWOOD       CLOUDY    32  32 100 S14       29.85F FOG     WCI  22
APPLETON       CLOUDY    36  32  87 S9        29.84F
BENSON         CLOUDY    34  32  93 S10       29.85F WCI  26
ORTONVILLE     CLOUDY    34  30  86 CALM      29.82F
MADISON        CLOUDY    36  36 100 S7        29.85S FOG
WILLMAR        CLOUDY    34  34 100 S8        29.89F FOG     WCI  27
$$
MNZ033>034-036-042>043-049>051-058-059-041300-
   Central Minnesota

CITY           SKY/WX    TMP DP  RH WIND       PRES   REMARKS
ST CLOUD       LGT SNOW  32  31  96 SE10      29.91F FOG     WCI  24
6HR MIN TEMP:  30; 6HR MAX TEMP:  32; 6HR PCP:  0.06;

PAYNESVILLE    LGT RAIN  33  33 100 S12       29.89F WCI  24
AITKIN         LGT SNOW  32  27  80 SE12      29.89F WCI  23
PINE RIVER     FLURRIES  28  28 100 SE8       29.90F WCI  20
BRAINERD       CLOUDY    30  28  92 SE10      29.88F WCI  21
STAPLES        CLOUDY    30  28  93 SE7       29.85F FOG     WCI  23
LONG PRAIRIE   CLOUDY    32  32 100 SE12      29.86F FOG     WCI  23
LITTLE FALLS   CLOUDY    32  30  93 SE10      29.89F WCI  24
LITCHFIELD     CLOUDY    34  34 100 SE8       29.90F FOG     WCI  27
BUFFALO        LGT SNOW  32  31  95 SE8       29.94F WCI  25
MAPLE LAKE     LGT SNOW  33  33  97 SE9       29.93F WCI  26
$$
MNZ037-044-045-052-053-041300-
   East Central Minnesota

CITY           SKY/WX    TMP DP  RH WIND       PRES   REMARKS
PRINCETON      LGT SNOW  32  30  93 SE8       29.93F WCI  25
MORA           LGT SNOW  30  28  93 SE6       29.96F WCI  24
CAMBRIDGE      LGT SNOW  32  28  86 SE6       29.94F WCI  26
RUSH CITY      CLOUDY    30  28  93 SE6       29.96F WCI  24
MOOSE LAKE     LGT SNOW  30  28  93 SE3       29.94F
HINCKLEY       LGT SNOW  30  30 100 SE7       29.96F WCI  23
CLOQUET        LGT SNOW  27  25  93 E6        29.95F WCI  20
MCGREGOR       CLOUDY    30  28  93 SE10      29.92F WCI  21
$$
MNZ071>073-080-081-089-090-097-098-041300-
   Southwest Minnesota

CITY           SKY/WX    TMP DP  RH WIND       PRES   REMARKS
MONTEVIDEO     CLOUDY    34  34 100 S8        29.87F WCI  27
GRANITE FALLS  CLOUDY    36  34  94 SE9       29.89F
CANBY          CLOUDY    35  32  88 CALM      29.85S
MARSHALL       PTCLDY    33  30  88 S9        29.86F WCI  25
REDWOOD FALLS  CLOUDY    35  32  88 S8        29.89F WCI  29
OLIVIA         CLOUDY    34  32  93 S8        29.88F FOG     WCI  27
PIPESTONE      CLOUDY    34  32  93 SW9       29.85S WCI  26
WINDOM         CLOUDY    34  34 100 CALM      29.89F FOG
WORTHINGTON    CLOUDY    32  31  96 SW9       29.88F WCI  24
JACKSON        CLOUDY    32  32 100 SW10      29.90F FOG     WCI  24
TRACY          CLOUDY    35  32  90 S8        29.86F WCI  28
SLAYTON        CLOUDY    32  32  99 S8        29.89F WCI  25
$$
MNZ065>067-074>077-082>085-091>093-041300-
   South Central Minnesota

CITY           SKY/WX    TMP DP  RH WIND       PRES   REMARKS
MANKATO        LGT RAIN N/A N/A N/A S9        29.94F
NEW ULM        CLOUDY    34  34 100 S10       29.91F FOG     WCI  26
ST JAMES       CLOUDY    34  34 100 S10       29.92F FOG     WCI  26
FAIRMONT       CLOUDY    33  32  96 S12       29.92F FOG     WCI  24
GLENCOE        CLOUDY    33  33 100 SE8       29.92F FOG     WCI  26
FARIBAULT      LGT SNOW  34  32  93 SE8       29.96F WCI  27
OWATONNA       LGT SNOW  34  30  86 SE12      29.95F WCI  25
WASECA         LGT SNOW  32  32 100 SE10      29.95F WCI  24
$$
MNZ078>079-086>088-094>096-041300-
   Southeast Minnesota

CITY           SKY/WX    TMP DP  RH WIND       PRES   REMARKS
ROCHESTER      LGT SNOW  32  31  96 SE14      29.97F FOG     WCI  22
6HR MIN TEMP:  31; 6HR MAX TEMP:  32; 6HR PCP:  0.12;

STANTON        LGT SNOW  34  31  90 SE9       29.95F WCI  27
DODGE CENTER   LGT SNOW  30  30 100 SE12      29.96F VSB 1   WCI  21
WINONA         LGT SNOW  32  32 100 SE9       30.04F WCI  24
AUSTIN         LGT SNOW  32  30  93 S9        29.95F WCI  24
PRESTON        LGT SNOW  31  29  96 SE10      29.99F WCI  22
$$
ABBREVIATIONS USED IN REMARKS
   TC - TEMPERATURES IN CELSIUS
  WCI - WIND CHILL INDEX
   HX - HEAT INDEX
  VSB - VISIBILITY
$$




USA.gov is the U.S. government's official web portal to all federal, state and local government web resources and services.